Augusta, GA

3:23 AM EST on February 26, 2017 (GMT -0500)
Augusta Regional At Bush

Weather History for KAGS - April, 2013

Change the Weather History Date:

Tuesday, April 30, 2013

  Actual Average Record
Temperature  
Mean Temperature 67 °F 66 °F  
Max Temperature 78 °F 81 °F 93 °F (1987)
Min Temperature 56 °F 52 °F 37 °F (2008)
Degree Days  
Heating Degree Days 0 2  
Month to date heating degree days 112 123  
Since 1 July heating degree days 2351 2452  
Cooling Degree Days 2 3  
Month to date cooling degree days 42 55  
Year to date cooling degree days 63 73  
Growing Degree Days 18 (Base 50)    
Moisture  
Dew Point 59 °F    
Average Humidity 78    
Maximum Humidity 100    
Minimum Humidity 56    
Precipitation  
Precipitation 0.00 in 0.08 in 1.96 in (1953)
Month to date precipitation 4.23 2.84  
Year to date precipitation 17.34 14.85  
Sea Level Pressure  
Sea Level Pressure 30.01 in    
Wind  
Wind Speed 3 mph (NE)    
Max Wind Speed 16 mph    
Max Gust Speed 18 mph    
Visibility 4 miles    
Events Fog    
T = Trace of Precipitation, MM = Missing Value Source: NWS Daily Summary

Daily Weather History Graph

Daily Weather History Graph

Search for Another Location

Airport or City:

Trip Planner

Search our weather history database for the weather conditions in past years. The results will help you decide how hot, cold, wet, or windy it might be!

Date:

Astronomy

Apr. 30, 2013 Rise Set
Actual Time 6:40 AM EDT 8:10 PM EDT
Civil Twilight 6:14 AM EDT 8:36 PM EDT
Nautical Twilight 5:42 AM EDT 9:08 PM EDT
Astronomical Twilight 5:09 AM EDT 9:41 PM EDT
Moon 12:28 AM EDT (4/30) 11:10 AM EDT (4/30)
Length of Visible Light 14h 22m
Length of Day
13h 29m
Waning Gibbous, 70% of the Moon is Illuminated
Apr 30
Waning Gibbous
May 2
Last Quarter
May 9
New
May 18
First Quarter
May 25
Full

Hourly Weather History & Observations

Time (EDT) Temp. Dew Point Humidity Pressure Visibility Wind Dir Wind Speed Gust Speed Precip Events Conditions
12:05 AM 59.0 °F 57.2 °F 94% 29.98 in 0.2 mi Calm Calm - N/A Fog Fog
12:17 AM 59.0 °F 57.2 °F 94% 29.97 in 1.0 mi NW 3.5 mph - N/A   Mist
12:32 AM 57.2 °F 57.2 °F 100% 29.97 in 0.8 mi North 4.6 mph - N/A   Mist
12:34 AM 57.2 °F 57.2 °F 100% 29.97 in 1.2 mi NNW 4.6 mph - N/A   Scattered Clouds
12:42 AM 57.2 °F 57.2 °F 100% 29.96 in 10.0 mi North 3.5 mph - N/A   Scattered Clouds
12:47 AM 57.2 °F 57.2 °F 100% 29.97 in 1.5 mi Calm Calm - N/A   Scattered Clouds
12:49 AM 57.2 °F 57.2 °F 100% 29.97 in 0.8 mi Calm Calm - N/A   Mist
12:53 AM 57.9 °F 57.0 °F 97% 29.97 in 0.5 mi Calm Calm - N/A Fog Fog
1:02 AM 57.2 °F 57.2 °F 100% 29.97 in 1.2 mi Calm Calm - N/A   Scattered Clouds
1:08 AM 57.2 °F 57.2 °F 100% 29.97 in 0.8 mi Calm Calm - N/A   Mist
1:19 AM 57.2 °F 55.4 °F 94% 29.97 in 0.2 mi Calm Calm - N/A Fog Fog
1:26 AM 57.2 °F 55.4 °F 94% 29.97 in 1.0 mi Calm Calm - N/A   Mist
1:29 AM 57.2 °F 55.4 °F 94% 29.97 in 2.5 mi Calm Calm - N/A   Scattered Clouds
1:36 AM 57.2 °F 55.4 °F 94% 29.97 in 8.0 mi Calm Calm - N/A   Scattered Clouds
1:53 AM 57.0 °F 55.9 °F 96% 29.97 in 5.0 mi Calm Calm - N/A   Mostly Cloudy
2:03 AM 57.2 °F 55.4 °F 94% 29.97 in 0.8 mi Calm Calm - N/A   Mist
2:13 AM 57.2 °F 55.4 °F 94% 29.97 in 0.2 mi Calm Calm - N/A Fog Fog
2:24 AM 57.2 °F 55.4 °F 94% 29.97 in 0.8 mi Calm Calm - N/A   Overcast
2:29 AM 57.2 °F 55.4 °F 94% 29.97 in 1.8 mi Calm Calm - N/A   Overcast
2:31 AM 55.4 °F 55.4 °F 100% 29.97 in 4.0 mi Calm Calm - N/A   Overcast
2:53 AM 57.0 °F 57.0 °F 100% 29.97 in 7.0 mi Calm Calm - N/A   Overcast
3:08 AM 57.2 °F 57.2 °F 100% 29.97 in 9.0 mi Calm Calm - N/A   Overcast
3:53 AM 60.1 °F 59.0 °F 96% 29.98 in 9.0 mi Calm Calm - N/A   Overcast
4:53 AM 61.0 °F 59.0 °F 93% 29.99 in 10.0 mi Calm Calm - N/A   Overcast
5:09 AM 60.8 °F 59.0 °F 94% 29.99 in 9.0 mi East 3.5 mph - N/A   Overcast
5:41 AM 60.8 °F 59.0 °F 94% 30.00 in 1.2 mi Calm Calm - N/A   Overcast
5:47 AM 60.8 °F 59.0 °F 94% 30.00 in 0.2 mi Calm Calm - N/A Fog Fog
5:53 AM 60.1 °F 59.0 °F 96% 30.00 in 0.2 mi Calm Calm - N/A Fog Fog
6:13 AM 60.8 °F 59.0 °F 94% 30.01 in 0.8 mi Calm Calm - N/A   Mist
6:20 AM 60.8 °F 59.0 °F 94% 30.01 in 1.0 mi Calm Calm - N/A   Mist
6:29 AM 60.8 °F 59.0 °F 94% 30.01 in 0.8 mi Calm Calm - N/A   Mist
6:35 AM 60.8 °F 59.0 °F 94% 30.02 in 2.0 mi Calm Calm - N/A   Overcast
6:53 AM 59.0 °F 59.0 °F 100% 30.02 in 1.0 mi NE 3.5 mph - N/A   Overcast
6:56 AM 59.0 °F 59.0 °F 100% 30.02 in 0.8 mi NE 3.5 mph - N/A   Overcast
7:53 AM 60.1 °F 59.0 °F 96% 30.04 in 0.5 mi Calm Calm - N/A Fog Fog
8:38 AM 60.8 °F 60.8 °F 100% 30.05 in 0.2 mi Calm Calm - N/A Fog Fog
8:53 AM 61.0 °F 60.1 °F 97% 30.05 in 0.5 mi East 3.5 mph - N/A Fog Fog
8:57 AM 60.8 °F 60.8 °F 100% 30.05 in 0.5 mi East 5.8 mph - N/A   Overcast
9:05 AM 60.8 °F 60.8 °F 100% 30.05 in 0.5 mi ENE 4.6 mph - N/A Fog Fog
9:12 AM 62.6 °F 60.8 °F 94% 30.06 in 1.0 mi NE 4.6 mph - N/A   Overcast
9:53 AM 63.0 °F 61.0 °F 93% 30.06 in 2.0 mi Calm Calm - N/A   Overcast
10:08 AM 64.4 °F 60.8 °F 88% 30.07 in 4.0 mi Calm Calm - N/A   Overcast
10:36 AM 64.4 °F 60.8 °F 88% 30.07 in 5.0 mi Calm Calm - N/A   Overcast
10:53 AM 66.0 °F 62.1 °F 87% 30.06 in 5.0 mi NNW 5.8 mph - N/A   Overcast
11:23 AM 68.0 °F 60.8 °F 78% 30.07 in 8.0 mi ENE 4.6 mph - N/A   Overcast
11:53 AM 69.1 °F 62.1 °F 78% 30.06 in 8.0 mi NNE 8.1 mph - N/A   Overcast
12:33 PM 71.6 °F 62.6 °F 73% 30.06 in 10.0 mi NE 8.1 mph - N/A   Overcast
12:53 PM 72.0 °F 62.1 °F 71% 30.05 in 10.0 mi NE 5.8 mph - N/A   Overcast
1:53 PM 73.0 °F 62.1 °F 68% 30.04 in 10.0 mi East 9.2 mph - N/A   Mostly Cloudy
2:53 PM 75.0 °F 62.1 °F 64% 30.04 in 10.0 mi ESE 8.1 mph - N/A   Mostly Cloudy
3:53 PM 77.0 °F 61.0 °F 58% 30.02 in 10.0 mi SE 8.1 mph - N/A   Mostly Cloudy
4:53 PM 77.0 °F 60.1 °F 56% 30.01 in 10.0 mi Variable 3.5 mph - N/A   Scattered Clouds
5:53 PM 77.0 °F 60.1 °F 56% 30.02 in 10.0 mi Calm Calm - N/A   Scattered Clouds
6:53 PM 73.9 °F 62.1 °F 66% 30.04 in 10.0 mi ENE 6.9 mph - N/A   Mostly Cloudy
7:53 PM 71.6 °F 60.8 °F 69% 30.04 in 10.0 mi East 5.8 mph - N/A   Partly Cloudy
8:53 PM 66.9 °F 61.0 °F 81% 30.06 in 10.0 mi Calm Calm - N/A   Partly Cloudy
9:53 PM 62.1 °F 60.1 °F 93% 30.08 in 10.0 mi Calm Calm - N/A   Clear
10:53 PM 62.1 °F 59.0 °F 90% 30.11 in 10.0 mi Calm Calm - N/A   Clear
11:53 PM 60.1 °F 57.9 °F 93% 30.11 in 8.0 mi Calm Calm - N/A   Clear